Volver al catálogo

STARLINK-3532

ActivoComunicacionesVLEO
NORAD 51727·PAYLOAD·🇺🇸 United States

Lanzado Feb 21, 2022 desde Cape Canaveral Space Force Station

Loading…

Próximos Pases (próximas 24 horas)

TLE

ActualizadoSource: CelesTrak SupGP

Época: Sep 14, 2026, 21:35 UTC

1 51727C 22016P   26257.89979167 -.00019798  00000+0 -58500-3 0  2574
2 51727  53.1579 189.5464 0001659  94.8869 172.1013 15.34396994    15

Sigue STARLINK-3532 en tiempo real con AllMySat

Download on the App Store